Epoch = 2004 Aug. 23.0 TT T = 2004 Aug. 11.56203 TT Peri. = 186.18458 e = 0.4905687 Node = 274.48917 2000.0 q = 1.7546140 AU Incl. = 13.88222 a = 3.4442604 AU n = 0.15419138 P = 6.39 years
H = 16.0 G = 0.15